TVF7380 LFML-LFBZ

Flight info

Callsign TVF7380
Flight time 0h 56m
Altitude 34000
Route FJR G393 TOU T544 AUCHE G17 SOVOS
Aircraft B738/M-SDE2E3FGHIRWXY/LB1

Departure

Time 2026-04-23 12:18
Airport Marseille Provence Airport (LFML)

Arrival

Time 2026-04-23 13:14
Airport Biarritz Pays Basque airport (LFBZ)
Time Latitude Longitude Altitude Speed Heading
2026-04-23 12:04 43.44014 5.22162 41 ft 0 kts 33°
2026-04-23 12:11 43.44012 5.22160 41 ft 2 kts 33°
2026-04-23 12:12 43.43991 5.22140 36 ft 4 kts 37°
2026-04-23 12:12 43.43971 5.22119 38 ft 2 kts 33°
2026-04-23 12:12 43.43951 5.22106 39 ft 4 kts 356°
2026-04-23 12:12 43.43930 5.22120 37 ft 4 kts 310°
2026-04-23 12:13 43.43919 5.22137 39 ft 1 kts 317°
2026-04-23 12:14 43.43925 5.22130 40 ft 4 kts 316°
2026-04-23 12:15 43.43963 5.22077 39 ft 12 kts 314°
2026-04-23 12:15 43.43981 5.21964 39 ft 15 kts 229°
2026-04-23 12:15 43.43909 5.21869 40 ft 14 kts 229°
2026-04-23 12:15 43.43941 5.21757 39 ft 16 kts 315°
2026-04-23 12:16 43.43977 5.21624 36 ft 17 kts 227°
2026-04-23 12:16 43.43925 5.21484 37 ft 19 kts 293°
2026-04-23 12:16 43.44019 5.21350 34 ft 20 kts 313°
2026-04-23 12:16 43.44114 5.21212 32 ft 21 kts 313°
2026-04-23 12:17 43.44227 5.21049 28 ft 25 kts 314°
2026-04-23 12:17 43.44310 5.20844 26 ft 25 kts 266°
2026-04-23 12:17 43.44191 5.20759 28 ft 24 kts 141°
2026-04-23 12:17 43.43985 5.21057 34 ft 82 kts 134°
2026-04-23 12:18 43.43375 5.21921 52 ft 166 kts 134°
2026-04-23 12:18 43.42463 5.23176 712 ft 192 kts 142°
2026-04-23 12:18 43.41343 5.24216 1646 ft 207 kts 150°
2026-04-23 12:18 43.40070 5.25246 2547 ft 207 kts 150°
2026-04-23 12:19 43.38848 5.26221 3482 ft 200 kts 146°
2026-04-23 12:19 43.37645 5.27207 3911 ft 204 kts 146°
2026-04-23 12:19 43.36390 5.28239 4224 ft 217 kts 147°
2026-04-23 12:19 43.34918 5.28827 4661 ft 228 kts 176°
2026-04-23 12:20 43.33312 5.28375 4746 ft 253 kts 203°
2026-04-23 12:20 43.32005 5.26691 5076 ft 261 kts 237°
2026-04-23 12:20 43.31065 5.24486 5346 ft 275 kts 239°
2026-04-23 12:20 43.30057 5.22157 5726 ft 287 kts 236°
2026-04-23 12:21 43.29003 5.19864 6454 ft 288 kts 236°
2026-04-23 12:21 43.27893 5.17551 7610 ft 290 kts 236°
2026-04-23 12:21 43.26770 5.15275 8919 ft 287 kts 237°
2026-04-23 12:21 43.25649 5.12990 10095 ft 290 kts 237°
2026-04-23 12:22 43.24517 5.10686 10914 ft 302 kts 239°
2026-04-23 12:22 43.23283 5.08181 11244 ft 332 kts 238°
2026-04-23 12:22 43.21947 5.05421 11469 ft 360 kts 242°
2026-04-23 12:22 43.21129 5.02112 11831 ft 374 kts 269°
2026-04-23 12:23 43.21506 4.98650 12653 ft 372 kts 291°
2026-04-23 12:23 43.22449 4.95334 13532 ft 374 kts 294°
2026-04-23 12:23 43.23458 4.92029 14389 ft 376 kts 294°
2026-04-23 12:23 43.24382 4.88663 15171 ft 378 kts 291°
2026-04-23 12:24 43.25205 4.85253 15820 ft 382 kts 290°
2026-04-23 12:24 43.26041 4.81770 16517 ft 384 kts 290°
2026-04-23 12:24 43.26913 4.78288 17229 ft 385 kts 291°
2026-04-23 12:24 43.27800 4.74843 17894 ft 387 kts 291°
2026-04-23 12:25 43.28750 4.71376 18513 ft 388 kts 294°
2026-04-23 12:25 43.29884 4.67989 19022 ft 390 kts 298°
2026-04-23 12:25 43.31179 4.64699 19500 ft 392 kts 301°
2026-04-23 12:25 43.32586 4.61481 19961 ft 394 kts 303°
2026-04-23 12:26 43.34022 4.58307 20419 ft 396 kts 303°
2026-04-23 12:26 43.35441 4.55031 20788 ft 400 kts 301°
2026-04-23 12:26 43.36810 4.51675 21177 ft 403 kts 300°
2026-04-23 12:26 43.38156 4.48272 21599 ft 405 kts 300°
2026-04-23 12:27 43.39492 4.44853 21997 ft 407 kts 300°
2026-04-23 12:27 43.40832 4.41404 22372 ft 409 kts 300°
2026-04-23 12:27 43.42179 4.37934 22730 ft 411 kts 300°
2026-04-23 12:27 43.43515 4.34493 23069 ft 413 kts 300°
2026-04-23 12:28 43.44876 4.30986 23415 ft 415 kts 300°
2026-04-23 12:28 43.46244 4.27460 23732 ft 417 kts 300°
2026-04-23 12:28 43.47619 4.23911 24015 ft 419 kts 300°
2026-04-23 12:28 43.48978 4.20402 24299 ft 420 kts 300°
2026-04-23 12:29 43.50354 4.16844 24509 ft 422 kts 300°
2026-04-23 12:29 43.51736 4.13265 24745 ft 423 kts 300°
2026-04-23 12:29 43.53126 4.09659 25027 ft 424 kts 300°
2026-04-23 12:29 43.54490 4.06117 25296 ft 424 kts 300°
2026-04-23 12:30 43.55872 4.02526 25543 ft 424 kts 300°
2026-04-23 12:30 43.57255 3.98923 25824 ft 423 kts 299°
2026-04-23 12:30 43.58520 3.95243 26067 ft 425 kts 295°
2026-04-23 12:30 43.59505 3.91386 26244 ft 428 kts 288°
2026-04-23 12:31 43.60178 3.87349 26437 ft 431 kts 284°
2026-04-23 12:31 43.60698 3.83303 26646 ft 433 kts 283°
2026-04-23 12:31 43.61234 3.79209 26835 ft 434 kts 284°
2026-04-23 12:31 43.61845 3.75107 26932 ft 436 kts 285°
2026-04-23 12:32 43.62533 3.71034 27087 ft 436 kts 286°
2026-04-23 12:32 43.63263 3.67017 27284 ft 436 kts 287°
2026-04-23 12:32 43.64013 3.62960 27464 ft 436 kts 287°
2026-04-23 12:32 43.64755 3.58886 27625 ft 436 kts 287°
2026-04-23 12:33 43.65484 3.54817 27815 ft 436 kts 286°
2026-04-23 12:33 43.66205 3.50749 28065 ft 436 kts 286°
2026-04-23 12:33 43.66934 3.46667 28258 ft 438 kts 287°
2026-04-23 12:33 43.67654 3.42645 28505 ft 436 kts 287°
2026-04-23 12:34 43.68381 3.38588 28796 ft 434 kts 287°
2026-04-23 12:34 43.69104 3.34539 29021 ft 432 kts 287°
2026-04-23 12:34 43.69825 3.30499 29233 ft 432 kts 287°
2026-04-23 12:34 43.70541 3.26470 29452 ft 431 kts 286°
2026-04-23 12:35 43.71253 3.22455 29727 ft 428 kts 287°
2026-04-23 12:35 43.71951 3.18502 29937 ft 427 kts 287°
2026-04-23 12:35 43.72655 3.14512 30126 ft 427 kts 287°
2026-04-23 12:35 43.73357 3.10525 30336 ft 426 kts 287°
2026-04-23 12:36 43.74059 3.06533 30522 ft 425 kts 287°
2026-04-23 12:36 43.74759 3.02542 30617 ft 426 kts 286°
2026-04-23 12:36 43.76112 2.94593 30851 ft 427 kts 286°
2026-04-23 12:37 43.76777 2.90593 31054 ft 425 kts 285°
2026-04-23 12:37 43.77299 2.86546 31189 ft 428 kts 280°
2026-04-23 12:37 43.77357 2.82404 31267 ft 436 kts 266°
2026-04-23 12:37 43.76811 2.78253 31447 ft 438 kts 263°
2026-04-23 12:38 43.76223 2.74127 31624 ft 435 kts 265°
2026-04-23 12:38 43.75854 2.69980 31752 ft 433 kts 270°
2026-04-23 12:38 43.75508 2.61721 32034 ft 431 kts 271°
2026-04-23 12:39 43.75325 2.57572 32142 ft 431 kts 270°
2026-04-23 12:39 43.75099 2.53429 32312 ft 431 kts 269°
2026-04-23 12:39 43.74837 2.49295 32466 ft 431 kts 269°
2026-04-23 12:39 43.74557 2.45207 32591 ft 431 kts 269°
2026-04-23 12:40 43.73965 2.36941 32856 ft 431 kts 269°
2026-04-23 12:40 43.73667 2.32820 33046 ft 430 kts 269°
2026-04-23 12:40 43.73370 2.28699 33130 ft 431 kts 268°
2026-04-23 12:41 43.72776 2.20444 33346 ft 432 kts 268°
2026-04-23 12:41 43.72476 2.16305 33501 ft 431 kts 268°
2026-04-23 12:41 43.72175 2.12181 33665 ft 430 kts 268°
2026-04-23 12:42 43.71874 2.08071 33813 ft 430 kts 268°
2026-04-23 12:42 43.71573 2.03985 33937 ft 430 kts 268°
2026-04-23 12:42 43.71290 1.99862 34078 ft 429 kts 269°
2026-04-23 12:42 43.71082 1.95744 34137 ft 428 kts 270°
2026-04-23 12:43 43.70762 1.87565 34139 ft 429 kts 270°
2026-04-23 12:43 43.70425 1.79323 34141 ft 429 kts 270°
2026-04-23 12:44 43.70050 1.71081 34136 ft 429 kts 270°
2026-04-23 12:44 43.69662 1.62901 34130 ft 429 kts 270°
2026-04-23 12:45 43.69266 1.54672 34139 ft 428 kts 270°
2026-04-23 12:45 43.68869 1.46495 34132 ft 428 kts 269°
2026-04-23 12:46 43.68464 1.38262 34128 ft 428 kts 269°
2026-04-23 12:46 43.68054 1.30047 34128 ft 428 kts 269°
2026-04-23 12:47 43.67730 1.21886 34131 ft 428 kts 270°
2026-04-23 12:47 43.67439 1.13665 34116 ft 428 kts 270°
2026-04-23 12:48 43.67134 1.05433 34121 ft 428 kts 270°
2026-04-23 12:48 43.66815 0.97259 34123 ft 429 kts 270°
2026-04-23 12:49 43.66485 0.89007 34108 ft 430 kts 270°
2026-04-23 12:49 43.66151 0.80802 34113 ft 430 kts 269°
2026-04-23 12:50 43.65810 0.72516 33791 ft 434 kts 269°
2026-04-23 12:50 43.65636 0.68359 33523 ft 433 kts 269°
2026-04-23 12:50 43.65461 0.64222 32881 ft 430 kts 269°
2026-04-23 12:51 43.65284 0.60131 32198 ft 425 kts 269°
2026-04-23 12:51 43.64974 0.56067 31472 ft 423 kts 264°
2026-04-23 12:51 43.64325 0.52150 30727 ft 425 kts 253°
2026-04-23 12:51 43.63023 0.48466 29970 ft 427 kts 244°
2026-04-23 12:52 43.62019 0.46065 29357 ft 427 kts 244°
2026-04-23 12:52 43.60636 0.42528 28664 ft 418 kts 249°
2026-04-23 12:52 43.59494 0.38898 28078 ft 411 kts 252°
2026-04-23 12:52 43.58444 0.35195 27518 ft 420 kts 252°
2026-04-23 12:53 43.57348 0.31376 26926 ft 434 kts 251°
2026-04-23 12:53 43.56175 0.27556 26321 ft 428 kts 250°
2026-04-23 12:53 43.54976 0.23839 25726 ft 419 kts 249°
2026-04-23 12:53 43.53804 0.20250 25138 ft 411 kts 249°
2026-04-23 12:54 43.52640 0.16663 24521 ft 405 kts 249°
2026-04-23 12:54 43.51509 0.13149 23943 ft 399 kts 249°
2026-04-23 12:54 43.50389 0.09657 23343 ft 394 kts 249°
2026-04-23 12:54 43.49283 0.06213 22721 ft 388 kts 249°
2026-04-23 12:55 43.48189 0.02813 22160 ft 390 kts 249°
2026-04-23 12:55 43.47074 -0.00682 21603 ft 405 kts 250°
2026-04-23 12:55 43.46114 -0.04280 20961 ft 403 kts 255°
2026-04-23 12:55 43.45437 -0.07996 20378 ft 394 kts 260°
2026-04-23 12:56 43.44973 -0.11689 19811 ft 386 kts 263°
2026-04-23 12:56 43.44571 -0.15311 19264 ft 379 kts 263°
2026-04-23 12:56 43.44164 -0.18839 18628 ft 376 kts 262°
2026-04-23 12:56 43.43722 -0.22370 18143 ft 371 kts 261°
2026-04-23 12:57 43.43257 -0.25851 17559 ft 367 kts 261°
2026-04-23 12:57 43.42776 -0.29304 17022 ft 368 kts 260°
2026-04-23 12:57 43.42282 -0.32825 16508 ft 377 kts 261°
2026-04-23 12:57 43.41977 -0.36351 16247 ft 376 kts 267°
2026-04-23 12:58 43.41905 -0.39960 16006 ft 378 kts 270°
2026-04-23 12:58 43.41908 -0.43576 15767 ft 377 kts 270°
2026-04-23 12:58 43.41878 -0.47176 15524 ft 376 kts 269°
2026-04-23 12:58 43.41809 -0.50763 15282 ft 374 kts 268°
2026-04-23 12:59 43.41726 -0.54300 15042 ft 373 kts 268°
2026-04-23 12:59 43.41645 -0.57852 14804 ft 372 kts 268°
2026-04-23 12:59 43.41567 -0.61411 14567 ft 371 kts 268°
2026-04-23 12:59 43.41496 -0.64950 14155 ft 369 kts 268°
2026-04-23 13:00 43.41429 -0.68455 13627 ft 364 kts 268°
2026-04-23 13:00 43.41365 -0.71931 13083 ft 361 kts 268°
2026-04-23 13:00 43.41303 -0.75314 12573 ft 357 kts 268°
2026-04-23 13:00 43.41241 -0.78717 12071 ft 353 kts 268°
2026-04-23 13:01 43.41179 -0.82088 11557 ft 350 kts 267°
2026-04-23 13:01 43.41116 -0.85432 11068 ft 348 kts 267°
2026-04-23 13:01 43.41055 -0.88656 10944 ft 335 kts 267°
2026-04-23 13:01 43.40994 -0.91819 10791 ft 323 kts 266°
2026-04-23 13:02 43.40934 -0.94860 10645 ft 313 kts 267°
2026-04-23 13:02 43.40875 -0.97811 10518 ft 303 kts 267°
2026-04-23 13:02 43.40818 -1.00664 10391 ft 294 kts 267°
2026-04-23 13:02 43.40761 -1.03433 10273 ft 285 kts 267°
2026-04-23 13:03 43.40706 -1.06086 10152 ft 277 kts 266°
2026-04-23 13:03 43.40651 -1.08697 9953 ft 272 kts 266°
2026-04-23 13:03 43.40596 -1.11292 9664 ft 271 kts 266°
2026-04-23 13:03 43.40538 -1.13914 9379 ft 276 kts 266°
2026-04-23 13:04 43.40479 -1.16582 9094 ft 282 kts 266°
2026-04-23 13:04 43.40418 -1.19304 8795 ft 286 kts 266°
2026-04-23 13:04 43.40356 -1.22068 8482 ft 289 kts 266°
2026-04-23 13:04 43.40295 -1.24820 8179 ft 286 kts 266°
2026-04-23 13:05 43.40234 -1.27520 7883 ft 284 kts 266°
2026-04-23 13:05 43.40173 -1.30246 7580 ft 283 kts 265°
2026-04-23 13:05 43.40111 -1.32944 7285 ft 281 kts 265°
2026-04-23 13:05 43.40049 -1.35598 6992 ft 279 kts 265°
2026-04-23 13:06 43.39924 -1.40915 6389 ft 278 kts 265°
2026-04-23 13:06 43.39860 -1.43570 6098 ft 277 kts 265°
2026-04-23 13:06 43.39795 -1.46221 5766 ft 276 kts 265°
2026-04-23 13:07 43.39730 -1.48877 5380 ft 278 kts 265°
2026-04-23 13:07 43.39666 -1.51481 5035 ft 271 kts 265°
2026-04-23 13:07 43.39604 -1.54042 4718 ft 264 kts 262°
2026-04-23 13:07 43.39542 -1.56553 4405 ft 261 kts 264°
2026-04-23 13:08 43.39475 -1.59049 4111 ft 260 kts 263°
2026-04-23 13:08 43.39414 -1.61501 3876 ft 257 kts 264°
2026-04-23 13:08 43.39351 -1.63912 3764 ft 247 kts 264°
2026-04-23 13:08 43.39296 -1.66209 3692 ft 233 kts 261°
2026-04-23 13:09 43.39247 -1.68365 3595 ft 219 kts 261°
2026-04-23 13:09 43.39197 -1.70391 3510 ft 203 kts 263°
2026-04-23 13:09 43.39351 -1.72271 3378 ft 202 kts 288°
2026-04-23 13:09 43.40358 -1.73586 3278 ft 204 kts 338°
2026-04-23 13:10 43.41760 -1.73856 3152 ft 203 kts 359°
2026-04-23 13:10 43.43140 -1.73850 2963 ft 197 kts
2026-04-23 13:10 43.44496 -1.73825 2737 ft 191 kts
2026-04-23 13:10 43.45740 -1.73400 2495 ft 180 kts 39°
2026-04-23 13:11 43.46325 -1.72074 2429 ft 160 kts 84°
2026-04-23 13:11 43.46492 -1.70553 2326 ft 162 kts 87°
2026-04-23 13:11 43.46607 -1.69058 2233 ft 153 kts 89°
2026-04-23 13:11 43.46664 -1.67629 2105 ft 144 kts 91°
2026-04-23 13:12 43.46741 -1.66254 1853 ft 149 kts 90°
2026-04-23 13:12 43.46797 -1.64846 1696 ft 147 kts 90°
2026-04-23 13:12 43.46810 -1.63467 1577 ft 144 kts 94°
2026-04-23 13:12 43.46778 -1.62030 1499 ft 154 kts 93°
2026-04-23 13:13 43.46770 -1.60595 1385 ft 142 kts 91°
2026-04-23 13:13 43.46768 -1.59250 1114 ft 141 kts 90°
2026-04-23 13:13 43.46773 -1.57905 915 ft 141 kts 90°
2026-04-23 13:13 43.46780 -1.56514 758 ft 148 kts 86°
2026-04-23 13:14 43.46796 -1.55111 544 ft 147 kts 86°
2026-04-23 13:14 43.46826 -1.53746 325 ft 137 kts 89°
2026-04-23 13:14 43.46834 -1.52574 252 ft 91 kts 89°
2026-04-23 13:14 43.46850 -1.52043 248 ft 43 kts 89°
2026-04-23 13:15 43.46849 -1.51646 244 ft 39 kts 89°
2026-04-23 13:15 43.46851 -1.51287 242 ft 36 kts 89°
2026-04-23 13:15 43.46861 -1.51039 241 ft 12 kts 62°
2026-04-23 13:15 43.46864 -1.50970 241 ft 9 kts 189°
2026-04-23 13:16 43.46852 -1.51076 241 ft 15 kts 271°
2026-04-23 13:16 43.46852 -1.51249 241 ft 20 kts 269°
2026-04-23 13:16 43.46849 -1.51434 243 ft 18 kts 269°
2026-04-23 13:16 43.46847 -1.51617 244 ft 20 kts 269°
2026-04-23 13:17 43.46846 -1.51809 246 ft 20 kts 269°
2026-04-23 13:17 43.46843 -1.51985 248 ft 17 kts 269°
2026-04-23 13:17 43.46856 -1.52138 248 ft 16 kts 305°
2026-04-23 13:17 43.46951 -1.52178 249 ft 15 kts 353°
2026-04-23 13:18 43.46999 -1.52298 250 ft 18 kts 268°
2026-04-23 13:18 43.46997 -1.52474 251 ft 19 kts 269°
2026-04-23 13:18 43.46994 -1.52644 252 ft 17 kts 269°
2026-04-23 13:18 43.46992 -1.52797 253 ft 15 kts 270°
2026-04-23 13:19 43.47038 -1.52897 254 ft 10 kts 316°
2026-04-23 13:19 43.47054 -1.52978 254 ft 8 kts 271°
2026-04-23 13:19 43.47055 -1.53052 255 ft 8 kts 270°
2026-04-23 13:19 43.47068 -1.53113 255 ft 6 kts 345°
2026-04-23 13:20 43.47112 -1.53097 255 ft 7 kts 19°
2026-04-23 13:20 43.47131 -1.53088 255 ft 0 kts 19°